Terminal Aerodrome Forecast
Issued by NWS Blacksburg, VA

Current Version | Previous Version | Graphics & Text | Print | Product List | Glossary On
Versions: 1 2 3 4 5 6 7 8 9 10 11 12 13 14 15 16 17 18
000
FTUS41 KRNK 190540
TAFBLF
TAF
KBLF 190540Z 1906/2006 28018G28KT P6SM OVC040
      TEMPO 1908/1911 4SM -SHRA OVC010
     FM191600 30015G25KT P6SM OVC025
     FM192200 30012G21KT P6SM OVC035=

USA.gov is the U.S. government's official web portal to all federal, state and local government web resources and services.